{"data":{"norad_id":49460,"intl_designator":"2021-104BE","name":"STARLINK-3140","alt_names":[],"object_type":"PAYLOAD","status":"ACTIVE","operator":null,"country":"US","launch_date":"2021-11-13","launch_site_code":"AFETR","launch_vehicle":null,"mission":null,"orbit_class":"UNKNOWN","rcs_meters":null,"size_class":null,"mass_kg":null,"dimensions":null,"purposes":["comms"],"wikipedia_slug":null,"has_3d_model":false,"image_url":null,"decayed_at":null,"tle_current":{"epoch":"2026-05-25T05:22:16.984416Z","epoch_age_seconds":49593,"freshness":"FRESH","line1":"1 49460U 21104BE  26145.22380769 -.00000798  00000+0 -32060-4 0  9996","line2":"2 49460  53.2137 235.5459 0001287  99.0132 261.1006 15.08844428250323","mean_motion":15.08844428,"eccentricity":0.0001287,"inclination_deg":53.2137,"raan_deg":235.5459,"arg_perigee_deg":99.0132,"mean_anomaly_deg":261.1006,"bstar":-3.206e-5,"rev_number":25032,"period_min":95.437274597537,"perigee_km":538.8395249085,"apogee_km":540.62018383681,"semimajor_km":6917.8668543727,"source":"CELESTRAK","updated_at":"2026-05-25T13:38:16.830527Z"}}}